{"data":{"norad_id":60748,"epoch":"2026-05-25T04:11:03.151392Z","epoch_age_seconds":63046,"freshness":"FRESH","line1":"1 60748U 24153D   26145.17434203  .00014065  00000+0  53128-3 0  9999","line2":"2 60748  97.6757 282.4148 0000623 268.0294  92.0873 15.27119094 96338","mean_motion":15.27119094,"eccentricity":6.23e-5,"inclination_deg":97.6757,"raan_deg":282.4148,"arg_perigee_deg":268.0294,"mean_anomaly_deg":92.0873,"bstar":0.00053128,"rev_number":9633,"period_min":94.295199742948,"perigee_km":484.00202362123,"apogee_km":484.85709941479,"semimajor_km":6862.566561518,"source":"CELESTRAK","updated_at":"2026-05-25T13:38:02.200705Z"}}